Regional Weather Roundup
Issued by NWS

Home | Current Version | Previous Version | Text Only | Print | Product List | Glossary On
Versions: 1 2 3 4 5 6 7 8 9 10 11 12 13 14 15 16 17 18 19 20 21 22 23 24 25 26 27 28 29 30 31 32 33 34 35 36 37 38 39 40 41 42 43 44 45 46 47 48 49 50
000
ASUS45 KCYS 252010
RWRWY

WYOMING REGIONAL WEATHER ROUNDUP
NATIONAL WEATHER SERVICE CHEYENNE WY
200 PM MDT MON JUL 25 2016

NOTE:  "FAIR" INDICATES FEW OR NO CLOUDS BELOW 12,000 FEET
WITH NO SIGNIFICANT WEATHER AND/OR OBSTRUCTIONS TO VISIBILITY.

WYZ001-252100-
YELLOWSTONE NATIONAL PARK

CITY           SKY/WX    TMP DP  RH WIND       PRES   REMARKS
LK YELLOWSTONE   N/A     78  18  10 MISG      30.35F
W YELLOWSTONE  NOT AVBL

$$
WYZ002>013-054>058-071-098>099-252100-
NORTHERN WYOMING

CITY           SKY/WX    TMP DP  RH WIND       PRES   REMARKS
JACKSON        SUNNY     82  30  15 S7        30.24F
CODY           FAIR      88  37  16 N10G16    30.10F
GREYBULL       FAIR      94  30  10 VRB6      30.01F
WORLAND        FAIR      93  32  11 VRB3      30.03F
SHERIDAN       FAIR      97  36  12 NE8       30.02F HX  92
BUFFALO        FAIR      94  33  11 SE10G21   30.10F
GILLETTE       FAIR      92  33  12 SE10      30.06F
HULETT         FAIR      91  36  14 NW9       30.08S
NEWCASTLE      FAIR      88  45  22 S16G24    30.09F

$$
WYZ014>020-022>026-101>103-252100-
CENTRAL WYOMING

CITY           SKY/WX    TMP DP  RH WIND       PRES   REMARKS
BIG PINEY      FAIR      85  25  11 S8        30.29F
PINEDALE       FAIR      82  25  12 NE3       30.31F
DUBOIS         FAIR      84  19   9 NW12G22   30.27F
LANDER         FAIR      89  24   9 CALM      30.16S
RIVERTON         N/A     90  29  11 MISG      30.14F
CASPER         FAIR      91  37  15 S9        30.12F
DOUGLAS          N/A    N/A N/A N/A MISG      30.11F

$$
WYZ021-027>030-104>119-252100-
SOUTHERN WYOMING

CITY           SKY/WX    TMP DP  RH WIND       PRES   REMARKS
EVANSTON       FAIR      89  29  11 W18G25    30.29F
KEMMERER         N/A    N/A N/A N/A E7        30.30F
FORT BRIDGER   FAIR      88  29  12 S3        30.30F
ROCK SPRINGS   FAIR      89  20   8 S10       30.26F
DIXON          FAIR      91  28  10 W13G21    30.29F
RAWLINS        FAIR      90  10   5 NW18G28   30.27F
SARATOGA       FAIR      90  23   9 W16G24    30.30F
LARAMIE        FAIR      88  14   6 NW20G26   30.29F
CHEYENNE       FAIR      86  51  29 SE13G21   30.22F
TORRINGTON     FAIR      91  54  28 SE13G25   30.06F
PINE BLUFFS    FAIR      82  55  39 SE16G22   30.19F

$$



USA.gov is the U.S. government's official web portal to all federal, state and local government web resources and services.